Zurück zum Katalog

INTELSAT 3-F6

AktivKommunikationGEO
NORAD 4297·PAYLOAD· XX

Gestartet Jan 15, 1970 von Cape Canaveral Space Force Station

Loading…

TLE

AktuellSource: Space-Track

Epoche: Sep 14, 2026, 16:26 UTC

1 04297U 70003A   26257.68473485 -.00000063  00000-0  00000-0 0  9999
2 04297   1.3136  87.3867 0009104 261.5604  84.5009  0.99159567177748

Verfolge INTELSAT 3-F6 in Echtzeit mit AllMySat

Download on the App Store